User: anonymous   Login
Location: *
(45.4590°N, 16.3650°E)
Time: 12:42:01
(UTC+00:00)
Language:

Cosmos 2218 Rocket - Orbit

View from above orbital plane
View from above orbital plane
View from above satellite
View from above satellite

Ground track
Ground track

The orbit data is extracted from the following two-line orbital elements,

1 22208U 92073B   20088.85922826  .00000042  00000-0  27610-4 0  9991
2 22208  82.9217 347.6667 0035657  85.1821 343.9410 13.75154788375643
Epoch (UTC): 28 March 2020 20:37:17
Eccentricity: 0.0035657
inclination: 82.9217°
perigee height: 955 km
apogee height: 1007 km
right ascension of ascending node: 347.6667°
argument of perigee: 85.1821°
revolutions per day: 13.75154788
mean anomaly at epoch: 343.9410°
orbit number at epoch: 37564

The dashed part of the orbit path shows where the satellite is in the earth's shadow,  

DLR